Vorticity
3 3 5 6 9 10 7 7 8 6 4 4 5 5 6 5 2 2 5 6 5 6 7 5 3 8 7 7 6 8 10 11 15 13 9 10 10 10 8 12 10 11 5 8 6
14 13 12 12 10 8 6 5 6 7 5 6 7 5 3 2 4 6 6 4 6 5 5 6 3 3 6 5 2 6 9 9 5 17 13 13 11 11 9 8 13 9 5 8 5
8 7 8 8 9 7 5 7 6 4 5 7 6 5 5 4 3 3 5 4 4 5 5 6 3 3 4 4 2 -0 4 7 4 8 13 15 14 12 10 9 6 10 7 4 1
10 11 10 8 7 7 7 7 6 7 8 4 2 2 3 4 4 3 1 2 3 5 7 5 4 2 3 4 4 4 2 3 5 7 9 11 14 15 15 13 11 9 7 11 3
7 9 11 11 10 9 8 7 6 6 5 4 6 5 5 4 3 3 4 0 0 4 7 6 5 3 1 3 3 4 3 1 5 6 4 8 8 14 13 13 13 13 9 8 13
6 5 8 8 11 9 8 6 4 4 3 3 3 3 4 5 4 4 4 5 -1 -3 4 10 7 4 3 2 3 3 3 1 4 8 4 4 7 8 11 13 15 13 11 9 9
8 7 5 4 4 2 2 4 4 4 5 4 4 5 4 5 6 5 5 6 6 1 -3 6 11 8 5 3 3 3 2 4 4 10 3 1 6 6 6 11 11 18 12 11 9
8 7 5 4 4 3 3 4 5 5 5 5 5 8 6 4 4 5 4 4 6 8 3 -1 8 10 7 5 5 4 2 5 3 8 4 3 9 2 6 6 9 10 14 13 10
3 7 4 3 3 2 2 4 7 11 6 8 5 6 2 4 3 4 6 3 5 7 8 2 2 7 9 7 6 4 2 5 5 5 6 4 1 2 7 8 5 7 8 11 12
4 3 6 9 6 4 5 4 6 -0 4 8 4 5 4 4 4 5 5 6 4 5 8 8 3 2 11 9 4 3 5 3 7 6 5 -1 1 6 5 1 11 5 6 7 11
5 5 4 4 4 3 3 4 4 4 2 3 4 6 3 5 5 6 7 7 5 6 7 8 5 2 2 12 5 4 5 6 7 8 6 -3 15 9 4 5 6 11 3 6 6
5 5 6 5 4 3 4 3 3 3 4 4 3 8 2 5 5 7 5 6 5 6 6 7 8 5 2 5 10 7 5 4 6 6 2 -0 2 14 1 11 1 4 4 7 5
5 5 3 2 2 2 3 4 4 4 5 4 2 10 1 6 5 6 7 6 7 4 4 6 6 6 4 3 5 7 7 5 5 8 2 5 7 7 1 10 10 9 4 7 4
7 7 5 3 4 6 6 4 3 3 6 4 11 3 9 5 6 5 5 7 6 6 5 4 6 6 6 6 2 6 10 9 5 5 3 3 6 6 2 10 4 11 8 -0 7
7 5 4 3 4 5 6 7 9 9 6 14 3 4 8 7 5 4 5 6 6 6 5 6 6 6 7 5 3 4 7 8 9 4 4 4 3 4 7 8 4 12 9 7 2
6 6 7 9 7 6 5 5 4 7 8 6 8 6 6 4 5 5 4 6 4 5 5 4 4 8 6 5 6 4 5 8 5 9 10 6 4 5 10 7 10 7 7 13 8
7 6 5 4 4 4 4 5 6 4 4 6 1 6 6 5 6 5 4 4 5 5 5 6 8 6 8 8 6 7 9 4 9 9 4 7 3 7 14 7 7 8 8 7 6
7 6 7 7 8 8 7 7 8 5 5 5 6 6 5 5 5 5 4 5 5 6 5 5 11 7 7 7 7 6 3 6 4 3 5 2 4 10 10 10 6 8 12 9 12
8 7 7 8 7 6 8 8 7 8 7 6 6 5 4 6 5 4 6 6 5 6 7 8 9 10 6 12 4 5 6 3 4 4 4 4 7 13 9 4 12 10 16 8 1
4 6 6 3 4 5 7 7 6 7 6 5 7 7 5 5 5 5 5 5 4 6 5 3 5 10 8 8 7 7 4 4 8 5 -3 10 9 9 6 14 12 9 10 8 7
3 4 4 5 5 2 3 3 4 6 7 9 7 5 6 4 4 4 5 3 6 5 6 5 7 12 8 9 6 7 4 5 4 3 6 6 5 7 15 11 8 7 9 14 14
1 4 4 5 6 4 5 5 5 2 4 5 6 6 5 4 3 4 9 8 8 6 4 8 10 9 7 8 3 2 6 5 3 12 19 10 -2 16 10 8 4 7 10 14 18
4 5 4 4 5 6 5 6 6 8 5 5 4 3 4 8 7 6 9 7 8 5 10 10 8 3 5 6 4 5 8 3 12 16 5 12 10 7 13 7 3 11 13 10 15
3 4 3 3 5 4 9 4 8 10 5 5 5 5 4 2 5 8 8 4 5 6 5 6 5 4 1 6 3 7 6 12 8 8 16 19 7 -4 16 5 8 7 10 11 6
6 3 3 5 7 10 6 8 8 7 5 8 5 6 4 10 11 7 11 9 7 12 11 11 3 2 5 3 13 3 14 18 17 4 3 4 -6 19 11 8 10 14 20 19 9
8 10 7 7 8 7 7 9 5 7 6 7 8 4 8 12 9 6 6 13 12 8 -14 -7 4 -2 -2 10 6 16 14 10 14 12 -3 1 -1 6 9 17 11 11 4 6 9
10 21 18 11 3 6 5 3 8 4 4 6 4 7 13 10 4 3 6 16 15 6 11 7 15 18 9 14 17 7 -7 5 2 14 6 -8 13 21 14 11 19 10 9 -6 5
Height
5851 5851 5852 5853 5853 5853 5854 5854 5854 5855 5855 5855 5854 5854 5854 5854 5853 5851 5853 5851 5848 5846 5844 5843 5841 5838 5836 5834 5831 5828 5826 5822 5818 5815 5812 5808 5806 5804 5802 5799 5798 5796 5794 5794 5792
5853 5853 5853 5854 5855 5855 5856 5856 5857 5857 5857 5857 5857 5856 5856 5855 5855 5855 5854 5851 5849 5847 5846 5844 5842 5839 5837 5834 5831 5829 5827 5823 5819 5815 5811 5808 5805 5803 5801 5798 5796 5794 5792 5791 5789
5855 5855 5855 5856 5857 5857 5858 5858 5858 5859 5859 5859 5858 5858 5857 5857 5857 5855 5854 5852 5850 5848 5846 5844 5842 5840 5837 5834 5831 5829 5826 5823 5819 5815 5811 5807 5804 5801 5799 5798 5796 5793 5792 5790 5788
5857 5857 5858 5858 5859 5859 5860 5860 5861 5861 5861 5861 5860 5860 5859 5858 5859 5856 5854 5853 5851 5849 5847 5844 5842 5839 5837 5834 5831 5828 5825 5823 5819 5815 5811 5807 5803 5800 5798 5796 5793 5791 5789 5787 5785
5860 5860 5860 5860 5861 5862 5862 5863 5863 5863 5863 5862 5862 5861 5860 5859 5858 5857 5855 5854 5852 5849 5847 5844 5842 5839 5836 5833 5830 5827 5825 5822 5818 5814 5810 5806 5802 5799 5796 5793 5790 5787 5785 5784 5781
5863 5863 5863 5863 5864 5864 5865 5865 5865 5865 5865 5864 5862 5861 5861 5860 5859 5857 5856 5854 5852 5850 5847 5845 5842 5839 5836 5833 5830 5826 5823 5820 5817 5813 5809 5806 5802 5797 5793 5790 5787 5785 5782 5779 5777
5865 5865 5866 5866 5867 5867 5867 5867 5867 5867 5866 5865 5863 5862 5861 5861 5859 5857 5856 5854 5852 5850 5847 5844 5841 5839 5835 5832 5829 5825 5822 5818 5815 5812 5808 5804 5801 5796 5791 5787 5784 5782 5779 5776 5773
5867 5867 5868 5868 5868 5868 5868 5868 5868 5868 5866 5865 5864 5862 5861 5860 5858 5857 5855 5853 5851 5849 5846 5843 5840 5837 5834 5831 5827 5824 5820 5817 5812 5809 5806 5802 5798 5794 5789 5785 5781 5778 5775 5772 5769
5868 5868 5868 5868 5869 5869 5869 5868 5867 5867 5866 5864 5863 5862 5861 5859 5857 5855 5854 5852 5850 5847 5844 5842 5839 5836 5833 5829 5827 5823 5818 5814 5810 5806 5803 5800 5796 5792 5787 5783 5779 5775 5771 5767 5764
5869 5869 5869 5869 5869 5869 5868 5868 5867 5866 5865 5864 5863 5863 5860 5858 5856 5854 5852 5850 5847 5844 5842 5839 5836 5833 5830 5827 5824 5821 5817 5812 5808 5805 5800 5797 5792 5789 5784 5780 5776 5771 5767 5763 5759
5868 5868 5868 5868 5868 5868 5868 5867 5868 5866 5864 5863 5862 5860 5858 5856 5854 5852 5849 5847 5844 5841 5838 5835 5833 5829 5826 5823 5820 5817 5814 5811 5805 5802 5798 5793 5788 5784 5781 5776 5772 5767 5763 5758 5753
5867 5867 5867 5867 5867 5866 5866 5865 5864 5864 5863 5861 5859 5858 5856 5853 5851 5848 5847 5844 5841 5838 5835 5833 5828 5825 5822 5819 5816 5813 5810 5806 5803 5797 5793 5789 5785 5780 5776 5772 5767 5762 5758 5753 5748
5865 5865 5865 5864 5864 5864 5863 5862 5862 5860 5860 5859 5857 5855 5853 5851 5848 5846 5843 5840 5837 5834 5831 5828 5825 5822 5818 5815 5811 5806 5803 5800 5797 5794 5789 5785 5783 5776 5772 5767 5763 5758 5752 5747 5742
5863 5863 5863 5862 5863 5862 5861 5860 5859 5858 5857 5857 5854 5852 5850 5847 5845 5842 5839 5837 5834 5831 5827 5825 5821 5817 5814 5810 5807 5803 5799 5795 5791 5788 5785 5779 5777 5773 5767 5761 5756 5751 5746 5741 5736
5862 5861 5860 5860 5859 5858 5858 5856 5855 5854 5852 5852 5849 5847 5845 5844 5841 5838 5835 5832 5829 5826 5824 5820 5816 5812 5808 5805 5801 5797 5793 5788 5784 5780 5778 5774 5770 5768 5762 5754 5748 5742 5738 5733 5728
5858 5858 5857 5857 5856 5855 5854 5852 5851 5851 5848 5847 5845 5842 5841 5838 5836 5833 5831 5828 5824 5821 5818 5814 5811 5807 5803 5798 5795 5791 5788 5782 5778 5772 5768 5763 5759 5759 5753 5747 5740 5735 5731 5725 5720
5854 5854 5854 5852 5852 5851 5849 5849 5848 5845 5844 5842 5839 5837 5835 5833 5831 5828 5825 5822 5819 5815 5812 5808 5805 5800 5797 5793 5788 5784 5780 5774 5769 5764 5760 5754 5748 5748 5743 5737 5731 5726 5721 5716 5710
5849 5849 5848 5847 5846 5845 5844 5844 5842 5839 5837 5835 5833 5831 5829 5826 5824 5821 5818 5816 5812 5809 5804 5801 5798 5794 5791 5785 5780 5776 5772 5767 5761 5756 5753 5748 5741 5738 5732 5726 5719 5714 5709 5704 5699
5844 5843 5843 5841 5840 5839 5839 5837 5835 5833 5831 5829 5827 5824 5823 5820 5817 5814 5812 5809 5805 5801 5798 5792 5789 5787 5783 5777 5774 5767 5763 5759 5753 5749 5744 5740 5733 5731 5722 5717 5710 5704 5700 5694 5689
5838 5838 5837 5835 5833 5832 5832 5829 5827 5825 5823 5821 5819 5817 5815 5813 5810 5806 5804 5801 5796 5793 5789 5785 5779 5779 5775 5770 5767 5761 5756 5749 5744 5737 5733 5731 5723 5720 5713 5706 5700 5695 5689 5684 5680
5830 5829 5829 5827 5826 5825 5823 5822 5819 5817 5815 5814 5811 5808 5807 5804 5801 5797 5795 5791 5786 5784 5780 5775 5771 5770 5765 5761 5757 5752 5745 5739 5736 5729 5718 5715 5714 5711 5704 5696 5691 5685 5679 5674 5668
5821 5821 5820 5818 5819 5816 5815 5813 5812 5810 5807 5804 5802 5800 5797 5794 5791 5788 5786 5782 5776 5774 5770 5766 5760 5758 5755 5752 5748 5742 5735 5728 5724 5718 5707 5703 5700 5698 5694 5686 5679 5674 5668 5662 5657
5812 5811 5811 5809 5808 5806 5805 5803 5801 5801 5798 5795 5793 5791 5788 5784 5780 5778 5776 5772 5767 5764 5759 5755 5750 5748 5743 5742 5737 5728 5723 5717 5711 5704 5701 5689 5688 5683 5681 5673 5670 5664 5658 5653 5648
5801 5801 5801 5799 5797 5795 5794 5793 5792 5791 5788 5784 5782 5780 5777 5773 5771 5767 5763 5760 5757 5753 5748 5744 5741 5738 5733 5730 5726 5717 5711 5708 5700 5692 5688 5683 5675 5681 5666 5662 5657 5651 5646 5641 5636
5789 5788 5788 5787 5786 5785 5783 5782 5781 5778 5776 5774 5772 5770 5764 5762 5761 5756 5754 5749 5745 5741 5737 5732 5728 5725 5721 5719 5714 5707 5702 5698 5690 5685 5673 5673 5666 5663 5656 5649 5643 5638 5634 5630 5624
5775 5775 5775 5774 5773 5772 5770 5771 5769 5766 5762 5761 5759 5756 5753 5751 5747 5744 5741 5738 5736 5732 5726 5722 5715 5711 5710 5706 5700 5695 5695 5687 5680 5672 5663 5655 5653 5650 5646 5638 5630 5625 5621 5617 5613
5763 5760 5758 5760 5759 5758 5758 5758 5755 5752 5751 5747 5745 5743 5740 5738 5734 5733 5730 5727 5723 5720 5714 5706 5701 5695 5692 5690 5685 5684 5681 5675 5670 5664 5652 5646 5641 5636 5630 5626 5621 5615 5609 5604 5599